Regional Weather Roundup
Issued by NWS

Home | Current Version | Previous Version | Graphics & Text | Print | Product List | Glossary Off
Versions: 1 2 3 4 5 6 7 8 9 10 11 12 13 14 15 16 17 18 19 20 21 22 23 24 25 26 27 28 29 30 31 32 33 34 35 36 37 38 39 40 41 42 43 44 45 46 47 48 49 50

281
ASUS43 KMKX 191420
RWRWI

WISCONSIN REGIONAL WEATHER ROUNDUP
NATIONAL WEATHER SERVICE MILWAUKEE/SULLIVAN WI
800 AM CST THU JAN 19 2017

NOTE: "FAIR" INDICATES FEW OR NO CLOUDS BELOW 12,000 FEET WITH NO
SIGNIFICANT WEATHER AND/OR OBSTRUCTIONS TO VISIBILITY.

WIZ001-002-006>008-014>016-023>028-191500-
NORTHWEST WISCONSIN

CITY           SKY/WX    TMP DP  RH WIND       PRES   REMARKS
SUPERIOR ARPT  CLOUDY    34  32  92 SW5       29.80S WCI  30
ASHLAND        CLOUDY    35  32  88 S9        29.83F FOG     WCI  28
HAYWARD        CLOUDY    33  30  88 S8        29.83F FOG     WCI  26
SIREN          CLOUDY    30  29  98 S9        29.81F FOG     WCI  22
CUMBERLAND     FOG       28  28 100 SE6       29.84S VSB<1/4 WCI  22
RICE LAKE      FOG       31  30  99 SE6       29.87S VSB<1/4 WCI  25
CHETEK         FOG       31  31 100 SE6       29.87S VSB 1/4 WCI  25
LADYSMITH      FOG       33  33  99 S6        29.88S VSB 1/2 WCI  28
EAU CLAIRE     FOG       28  28 100 CALM      29.87S VSB 1
MENOMONIE      FOG       24  23  96 MISG      29.87S VSB<1/4
NEW RICHMOND   CLEAR     30  30  99 SE5       29.84S FOG     WCI  25
OSCEOLA        CLEAR     30  30 100 E7        29.85S FOG     WCI  23
$$

WIZ003>005-009-010-017-018-191500-
NORTH CENTRAL WISCONSIN

CITY           SKY/WX    TMP DP  RH WIND       PRES   REMARKS
MANITOWISH WTR FOG       31  31 100 S9        29.84S VSB 1/4 WCI  23
ARBOR VITAE    FOG       32  31  97 S7        29.86R VSB 1/4 WCI  26
WOODRUFF       FOG       32  31  97 S7        29.86R VSB 1/4 WCI  26
RHINELANDER    FOG       32  32 100 SW7       29.87S VSB 1/4 WCI  26
EAGLE RIVER    FOG       31  31 100 SW6       29.85F VSB 1/4 WCI  25
LAND O LAKES   FOG       32  32 100 S3        29.86F VSB 1/4
PHILLIPS       FOG       32  32 100 S6        29.86S VSB 3/4 WCI  26
TOMAHAWK       FOG       31  30  96 CALM      29.89S VSB 1/2
MEDFORD        FOG       31  31 100 S6        29.88R VSB<1/4 WCI  25
MERRILL        FOG       32  32 100 S5          N/A  VSB 1/4 WCI  27
$$

WIZ029-030-035-036-043>047-191500-
CENTRAL WISCONSIN

CITY           SKY/WX    TMP DP  RH WIND       PRES   REMARKS
WAUSAU         FOG       31  31 100 S6        29.90R VSB 1/4 WCI  25
MOSINEE        FOG       30  30 100 S6        29.92S VSB 1/8 WCI  24
MARSHFIELD     FOG       32  31  96 SE6       29.88F VSB<1/4 WCI  26
STEVENS POINT  FOG       31  31 100 S3        29.93S VSB 1/4
WAUPACA        CLOUDY    35  33  94 CALM      29.95S FOG
WAUTOMA        CLOUDY    33  32  96 CALM      29.94S FOG
WISC RAPIDS    FOG       32  32 100 CALM      29.92F VSB 1/4
CAMP DOUGLAS   CLEAR     27  27 100 SE5       29.91R FOG     WCI  21
$$

WIZ011>013-019>022-031-037>040-048>050-191500-
NORTHEAST WISCONSIN

CITY           SKY/WX    TMP DP  RH WIND       PRES   REMARKS
ANTIGO         FOG       29  29 100 SW7       29.90S VSB 1/4 WCI  22
SHAWANO        FOG       34  32  94 SW5       29.94S VSB 3/4 WCI  30
OCONTO         CLOUDY    32  31  96 W3        29.92F
STURGEON BAY   FOG       32  31  96 CALM      29.95S VSB 3/4
GREEN BAY      FOG       35  35 100 SW5       29.95S VSB 1   WCI  31
MANITOWOC      CLOUDY    34  32  92 CALM      29.97F FOG
APPLETON       FOG       32  32 100 SW7       29.93S VSB 1/4 WCI  26
CLINTONVILLE   FOG       32  32 100 SW5       29.94S VSB 3/4 WCI  27
OSHKOSH        CLOUDY    32  31  96 SW5       29.95R FOG     WCI  27
$$

WIZ032>034-041-042-053>061-191500-
SOUTHWEST WISCONSIN

CITY           SKY/WX    TMP DP  RH WIND       PRES   REMARKS
LA CROSSE      CLOUDY    36  32  85 S14       29.91S FOG     WCI  27
SPARTA         FOG       24  24  99 CALM      29.91S VSB 1/2
VIROQUA        CLOUDY    31  31 100 S6        29.89F VSB<1/4 WCI  25
BOSCOBEL       FOG       34  33  96 CALM      29.94S VSB 3/4
PRAIRIE DU CHI FOG       33  32  98 CALM      29.92S VSB 1
PLATTEVILLE    CLOUDY    32  32 100 SE3       29.93F VSB<1/4
$$

WIZ056-057-062-063-064-067-068-191500-
SOUTH CENTRAL WISCONSIN

CITY           SKY/WX    TMP DP  RH WIND       PRES   REMARKS
REEDSBURG      FOG       31  31 100 S5        29.92  VSB 1/2 WCI  27
BARABOO/DELLS  CLOUDY    29  29  99 S3        29.92S FOG
LONE ROCK      FOG       33  32  96 S3        29.94S VSB 3/4
MINERAL POINT  FOG       32  32 100 SE3       29.92S VSB<1/4
MADISON        FOG       32  31  96 S7        29.95S VSB 1/4 WCI  26
MIDDLETON      CLOUDY    33  33 100 SW5       29.94F VSB<1/4 WCI  29
WATERTOWN      FOG       32  32 100 S6        29.95F VSB 1/4 WCI  26
MONROE         FOG       30  30 100 E3        29.93F VSB<1/4
JANESVILLE     PTCLDY    30  30 100 CALM      29.95F FOG
$$

WIZ051-052-058>065-066-070>072-191500-
SOUTHEAST WISCONSIN

CITY           SKY/WX    TMP DP  RH WIND       PRES   REMARKS
MILWAUKEE      FOG       33  32  96 S7        29.98S VSB 1/4 WCI  27
WAUKESHA       FOG       30  30 100 W3        29.97  VSB 1/8
MILWAUKEE/TIMM FOG       34  30  86 SW7       29.98R VSB 1   WCI  28
RACINE         FOG       33  31  92 S7        30.00S VSB<1/4 WCI  27
KENOSHA        FOG       33  32  96 S7        29.98F VSB<1/4 WCI  27
FOND DU LAC    FOG       32  31  96 CALM      29.94F VSB 3/4
SHEBOYGAN      FOG       31  29  92 NE3       29.96F VSB 1
WEST BEND      FOG       32  32 100 CALM      29.96R VSB 3/4
JUNEAU         FOG       31  31  99 S6        29.96S VSB<1/4 WCI  25
$$

LSZ147-162-191500-
LAKE SUPERIOR

STATION/POSITION TIME  TEMP    WIND        PRES    WAVE
                       AIR SEA DIR/SP/G            HT/PER
                 (UTC) (F)     (DEG/KT/KT) (MB)    (FT/S)
DEVILS ISLAND    1400   35     180/  6/  7 1010.5R
PORT WING        1330   30     200/  5/  7 1009.5F
SAXON HARBOR     1340   37     190/  5/ 10 1010.2S
$$

LMZ867-665-643>646-191500-
LAKE MICHIGAN

STATION/POSITION TIME  TEMP    WIND        PRES    WAVE
                       AIR SEA DIR/SP/G            HT/PER
                 (UTC) (F)     (DEG/KT/KT) (MB)    (FT/S)
NORTHPORT PIER   1401   31     210/  4/ 14 1014.2
SISTER BAY       1320   32     290/ 10/ 12   N/A
KEWAUNEE LAKESHO 1400   33     240/  3/  8 1014.6
SHEBOYGAN LAKESH 1400   34      70/  2/  2 1015.3F
PORT WASHINGTON  1330   33      40/  2/  3 1015.6F
MILWAUKEE LAKESH 1400   33     190/  7/  9   N/A
KENOSHA   LAKESH 1400   33     200/  8/  9 1015.9
$$

TC  - TEMPERATURE IN CELSIUS
VSB - VISIBILITY IN STATUTE MILES
WCI - WIND CHILL INDEX
HX  - HEAT INDEX





USA.gov is the U.S. government's official web portal to all federal, state and local government web resources and services.